Tracking 19170 objects as of 23-May-2018
HD Live streaming from Space Station
objects crossing your sky now

1KUNS-PF

Track 1KUNS-PF now!
10-day predictions
1KUNS-PF is classified as:


NORAD ID: 43467
Int'l Code: 1998-067NQ
Perigee: 406.5 km
Apogee: 411.2 km
Inclination: 51.6 °
Period: 92.6 minutes
Semi major axis: 6779 km
RCS: Unknown
Launch date: November 30, 1998
Source: KENIA (KEN)
Launch site: TYURATAM MISSILE AND SPACE COMPLEX (TTMTR)
Uplink (MHz):
Downlink (MHz): 437.300
Beacon (MHz):
Mode: 1200bps BPSK
Call sign:
Status: Active

aabbcc
Your satellite tracking list
Your tracking list is empty




NASA's NSSDC Master Catalog

Two Line Element Set (TLE):
1 43467U 98067NQ  18143.19288409  .00006081  00000-0  95474-4 0  9990
2 43467  51.6405 143.2217 0003459  49.3702  27.7610 15.55152590  1814
Source of the keplerian elements: AFSPC